DECAYED
Showing default

LEMUR 2 MARAPAMASM, 58332 (Decayed)

Orbit data source: Space-Track

LEMUR 2 MARAPAMASM, 58332 was a payload satellite owned by Spire (US) in LEO that was launched on Sat, 11 Nov 2023 UTC via an FALCON 9 launch vehicle from the Air Force Western Test Range (AFWTR). Payload-class satellites include a variety of spacecraft equipped with specific instruments for various scientific and technological missions. These include communications satellites like Starlink; space stations such as the ISS; scientific satellites like the Hubble; Earth observation satellites from companies like Planet Labs, Umbra, and HawkEye 360; GPS; miniature CubeSats for education and research; and military/defense satellites.

Not visible in the next 10 days
Identifier
58332, 2023-174CE
Orbit
Decayed
Country
Flag of USUS
Related business
Manufacturer
Spire/Glasgow
Mission
Decayed Commercial Com/MetRO
Bus & Motor
CUBESAT 3U, Unknown motor
Mass
4.6 kg wet, 4.6 kg dry
Launch date (UTC)
2023-11-11 (2 years ago)
Launch vehicle
FALCON 9
Launch site
Air Force Western Test Range (AFWTR)
Object type
Payload
Rocket body
Debris
Shape & HBR
Box + 2 Pan, 0.3 m
Radar Cross Section
0.054 m², Small (<0.1 m²)

Expand to show TLE details & history
Last TLE update: 6 months ago

TLE from 6 months ago
0 LEMUR 2 MARAPAMASM
1 58332U 23174CE  25094.52743506  .10064303  25109-5  13403-2 0  9992
2 58332  97.3834 184.3008 0013288 270.1254  89.8520 16.35259531 78854
Epoch: 2025-04-04T12:39Z
TLE epoch observation values (Epoch: 2025-04-04T12:39:30.389Z)
Latitude
-0.00003°
Longitude
161.33954°
Altitude
181.678 km
Speed
7.797 km/s
True Right ascension
12h 17m 12s
True Declination
0° 00' 00"
Sunlit
Object was in full shadow at epoch
Visualization orbit readout
Latitude
Unknown
Longitude
Unknown
Altitude
Unknown
Speed
Unknown
Apparent Right ascension
Unknown
Apparent Declination
Unknown
Sunlit
N/A
Visualization observer readout
Local Sidereal Time
01:34:40
Azimuth
Unknown
Elevation
Unknown
Doppler factor
Unknown
Orbital elements
Apogee altitude
183.964 km
Perigee altitude
166.548 km
Semi-major axis
6,553.393 km
Eccentricity
0.00133
Inclination
97.3834°
RAAN
184.3008°
Arg. of periapsis
270.1254°
True anomaly
90.00427°
Mean anomaly
89.852°
Eccentric anomaly
89.92813°
Mean motion
4.09114 °/min
Orbital period
88 mins
BSTAR
0.0013403
Loading maneuver chart data...
Computing Atmospheric mass density...
Loading historical data...
Loading historical data...
Loading historical data...
Loading historical data...
Loading historical data...
Loading historical data...
Loading historical data...

Documentation

Showing up to 5 results
|